Weather History for KPVC - November, 2012

Change the Weather History Date:

Friday, November 16, 2012

  Actual Average Record
Temperature  
Mean Temperature 44 °F -  
Max Temperature 46 °F 47 °F 71 °F (1951)
Min Temperature 42 °F 37 °F 26 °F (2014)
Degree Days  
Heating Degree Days 21    
Moisture  
Dew Point 34 °F    
Average Humidity 69    
Maximum Humidity 76    
Minimum Humidity 61    
Precipitation  
Precipitation 0.00 in - - ()
Sea Level Pressure  
Sea Level Pressure 30.30 in    
Wind  
Wind Speed 11 mph (NNE)    
Max Wind Speed 16 mph    
Max Gust Speed 21 mph    
Visibility 10 miles    
Events      
Averages and records for this station are not official NWS values.
T = Trace of Precipitation, MM = Missing Value Source: NWS Daily Summary

Daily Weather History Graph

Daily Weather History Graph

Search for Another Location

Airport or City:

Trip Planner

Search our weather history database for the weather conditions in past years. The results will help you decide how hot, cold, wet, or windy it might be!

Date:

Astronomy

Nov. 16, 2012 Rise Set
Actual Time 6:32 AM EST 4:18 PM EST
Civil Twilight 6:02 AM EST 4:48 PM EST
Nautical Twilight 5:28 AM EST 5:22 PM EST
Astronomical Twilight 4:55 AM EST 5:55 PM EST
Moon 9:25 AM EST (11/16) 7:13 PM EST (11/16)
Length of Visible Light 10h 45m
Length of Day
9h 45m
Waxing Crescent, 11% of the Moon is Illuminated
Nov 16
Waxing Crescent
Nov 20
First Quarter
Nov 28
Full
Dec 6
Last Quarter
Dec 13
New

Hourly Weather History & Observations

Time (EST) Temp. Windchill Dew Point Humidity Pressure Visibility Wind Dir Wind Speed Gust Speed Precip Events Conditions
12:15 AM 42.8 °F 37.0 °F 35.6 °F 76% 30.29 in 10.0 mi NNE 10.4 mph 16.1 mph N/A   Overcast
12:35 AM 42.8 °F 36.6 °F 33.8 °F 70% 30.28 in 10.0 mi North 11.5 mph - N/A   Overcast
12:55 AM 42.8 °F 37.0 °F 33.8 °F 70% 30.28 in 10.0 mi NNE 10.4 mph - N/A   Overcast
1:15 AM 42.8 °F 36.6 °F 33.8 °F 70% 30.27 in 10.0 mi NNE 11.5 mph 16.1 mph N/A   Overcast
1:35 AM 44.6 °F 40.2 °F 33.8 °F 66% 30.27 in 10.0 mi NNE 8.1 mph - N/A   Overcast
1:55 AM 44.6 °F 38.8 °F 33.8 °F 66% 30.27 in 10.0 mi NE 11.5 mph - N/A   Overcast
2:15 AM 44.6 °F 38.8 °F 35.6 °F 71% 30.28 in 10.0 mi NNE 11.5 mph - N/A   Overcast
2:35 AM 44.6 °F 39.7 °F 33.8 °F 66% 30.27 in 10.0 mi NNE 9.2 mph - N/A   Overcast
2:55 AM 44.6 °F 39.2 °F 33.8 °F 66% 30.27 in 10.0 mi NNE 10.4 mph - N/A   Overcast
3:15 AM 44.6 °F 39.2 °F 33.8 °F 66% 30.27 in 10.0 mi NNE 10.4 mph - N/A   Overcast
3:35 AM 44.6 °F 39.7 °F 33.8 °F 66% 30.27 in 10.0 mi North 9.2 mph - N/A   Overcast
4:15 AM 42.8 °F 37.0 °F 33.8 °F 70% 30.26 in 10.0 mi NNE 10.4 mph 16.1 mph N/A   Overcast
4:35 AM 44.6 °F 38.8 °F 33.8 °F 66% 30.27 in 10.0 mi North 11.5 mph - N/A   Overcast
4:55 AM 44.6 °F 39.2 °F 33.8 °F 66% 30.27 in 10.0 mi North 10.4 mph - N/A   Overcast
5:15 AM 44.6 °F 38.4 °F 33.8 °F 66% 30.26 in 10.0 mi North 12.7 mph 18.4 mph N/A   Overcast
5:35 AM 44.6 °F 38.1 °F 35.6 °F 71% 30.27 in 10.0 mi North 13.8 mph 17.3 mph N/A   Overcast
5:56 AM 44.6 °F 38.4 °F 35.6 °F 71% 30.27 in 10.0 mi NNE 12.7 mph 17.3 mph N/A   Overcast
6:15 AM 44.6 °F 38.8 °F 33.8 °F 66% 30.27 in 10.0 mi NNE 11.5 mph 19.6 mph N/A   Overcast
6:35 AM 44.6 °F 38.4 °F 33.8 °F 66% 30.28 in 10.0 mi NNE 12.7 mph 17.3 mph N/A   Overcast
6:55 AM 42.8 °F 35.1 °F 35.6 °F 76% 30.28 in 10.0 mi NNE 16.1 mph 19.6 mph N/A   Overcast
7:15 AM 44.6 °F 39.2 °F 35.6 °F 71% 30.28 in 10.0 mi NNE 10.4 mph 18.4 mph N/A   Overcast
8:15 AM 44.6 °F 38.8 °F 33.8 °F 66% 30.30 in 10.0 mi NNE 11.5 mph 17.3 mph N/A   Mostly Cloudy
8:35 AM 44.6 °F 38.4 °F 35.6 °F 71% 30.30 in 10.0 mi NNE 12.7 mph 16.1 mph N/A   Mostly Cloudy
9:15 AM 44.6 °F 38.4 °F 33.8 °F 66% 30.30 in 10.0 mi NNE 12.7 mph - N/A   Scattered Clouds
9:35 AM 46.4 °F 41.9 °F 35.6 °F 66% 30.31 in 10.0 mi NNE 9.2 mph 16.1 mph N/A   Mostly Cloudy
9:55 AM 44.6 °F 39.7 °F 35.6 °F 71% 30.31 in 10.0 mi North 9.2 mph - N/A   Overcast
10:15 AM 44.6 °F 37.8 °F 35.6 °F 71% 30.31 in 10.0 mi North 15.0 mph 18.4 mph N/A   Overcast
10:35 AM 44.6 °F 37.8 °F 35.6 °F 71% 30.31 in 10.0 mi NNE 15.0 mph 20.7 mph N/A   Overcast
10:55 AM 46.4 °F 41.1 °F 35.6 °F 66% 30.31 in 10.0 mi NNE 11.5 mph 17.3 mph N/A   Mostly Cloudy
11:15 AM 46.4 °F 41.5 °F 35.6 °F 66% 30.30 in 10.0 mi NNE 10.4 mph - N/A   Overcast
11:35 AM 44.6 °F 38.4 °F 35.6 °F 71% 30.29 in 10.0 mi North 12.7 mph 17.3 mph N/A   Overcast
11:55 AM 44.6 °F 38.4 °F 35.6 °F 71% 30.29 in 10.0 mi North 12.7 mph 17.3 mph N/A   Mostly Cloudy
12:15 PM 44.6 °F 38.4 °F 35.6 °F 71% 30.28 in 10.0 mi North 12.7 mph - N/A   Overcast
12:35 PM 44.6 °F 38.8 °F 33.8 °F 66% 30.29 in 10.0 mi North 11.5 mph 16.1 mph N/A   Overcast
12:55 PM 44.6 °F 38.4 °F 35.6 °F 71% 30.29 in 10.0 mi NNE 12.7 mph - N/A   Mostly Cloudy
1:15 PM 44.6 °F 38.4 °F 33.8 °F 66% 30.29 in 10.0 mi North 12.7 mph - N/A   Mostly Cloudy
1:55 PM 44.6 °F 38.8 °F 35.6 °F 71% 30.29 in 10.0 mi NNE 11.5 mph 16.1 mph N/A   Overcast
2:15 PM 44.6 °F 39.2 °F 33.8 °F 66% 30.30 in 10.0 mi NNE 10.4 mph - N/A   Overcast
2:55 PM 44.6 °F 39.7 °F 33.8 °F 66% 30.31 in 10.0 mi North 9.2 mph - N/A   Overcast
3:15 PM 44.6 °F 39.7 °F 33.8 °F 66% 30.31 in 10.0 mi North 9.2 mph - N/A   Overcast
3:35 PM 42.8 °F 37.0 °F 33.8 °F 70% 30.31 in 10.0 mi NNE 10.4 mph - N/A   Overcast
3:55 PM 42.8 °F 36.6 °F 33.8 °F 70% 30.31 in 10.0 mi NNE 11.5 mph - N/A   Overcast
4:15 PM 42.8 °F 37.0 °F 33.8 °F 70% 30.31 in 10.0 mi North 10.4 mph - N/A   Overcast
4:35 PM 42.8 °F 37.0 °F 35.6 °F 76% 30.32 in 10.0 mi North 10.4 mph - N/A   Overcast
4:55 PM 42.8 °F 37.0 °F 33.8 °F 70% 30.32 in 10.0 mi NNE 10.4 mph 16.1 mph N/A   Mostly Cloudy
5:15 PM 42.8 °F 36.6 °F 35.6 °F 76% 30.32 in 10.0 mi North 11.5 mph - N/A   Mostly Cloudy
5:35 PM 42.8 °F 36.2 °F 33.8 °F 70% 30.33 in 10.0 mi North 12.7 mph - N/A   Mostly Cloudy
5:56 PM 42.8 °F 36.6 °F 35.6 °F 76% 30.34 in 10.0 mi North 11.5 mph - N/A   Overcast
6:15 PM 42.8 °F 37.0 °F 35.6 °F 76% 30.34 in 10.0 mi North 10.4 mph - N/A   Mostly Cloudy
6:55 PM 42.8 °F 38.0 °F 32.0 °F 66% 30.35 in 10.0 mi North 8.1 mph - N/A   Partly Cloudy
7:15 PM 42.8 °F 36.6 °F 33.8 °F 70% 30.34 in 10.0 mi North 11.5 mph - N/A   Partly Cloudy
7:35 PM 42.8 °F 36.6 °F 33.8 °F 70% 30.35 in 10.0 mi North 11.5 mph - N/A   Partly Cloudy
7:55 PM 42.8 °F 36.6 °F 33.8 °F 70% 30.36 in 10.0 mi North 11.5 mph - N/A   Clear
8:15 PM 42.8 °F 37.5 °F 33.8 °F 70% 30.36 in 10.0 mi North 9.2 mph - N/A   Clear
8:35 PM 44.6 °F 39.2 °F 33.8 °F 66% 30.37 in 10.0 mi North 10.4 mph - N/A   Clear
9:15 PM 44.6 °F 39.2 °F 32.0 °F 61% 30.37 in 10.0 mi North 10.4 mph - N/A   Clear
9:35 PM 44.6 °F 39.2 °F 32.0 °F 61% 30.38 in 10.0 mi North 10.4 mph - N/A   Clear
9:56 PM 44.6 °F 39.2 °F 32.0 °F 61% 30.38 in 10.0 mi North 10.4 mph - N/A   Clear
11:15 PM 44.6 °F 38.8 °F 33.8 °F 66% 30.40 in 10.0 mi NNE 11.5 mph - N/A   Clear